LER904 SVMI-SVMG

Flight info

Callsign LER904
Flight time N/A
Altitude 21000
Route OSMAR2 OSMAR DCT DALSI W19 CHALO DCT VAREX
Aircraft MD82/M-SDFGIRWY/S

Departure

Time 2025-10-04 06:12
Airport Maiquetía Simón Bolívar International Airport (SVMI)

Arrival

Time N/A
Airport Del Caribe Santiago Mariño International Airport (SVMG)
Time Latitude Longitude Altitude Speed Heading
2025-10-04 05:08 10.59837 -67.00186 193 ft 0 kts 178°
2025-10-04 05:50 10.59867 -67.00187 202 ft 2 kts 179°
2025-10-04 05:50 10.59899 -67.00193 202 ft 3 kts 138°
2025-10-04 05:51 10.59906 -67.00236 201 ft 0 kts 90°
2025-10-04 05:57 10.59910 -67.00187 200 ft 0 kts 87°
2025-10-04 05:59 10.59913 -66.99988 196 ft 0 kts 90°
2025-10-04 06:00 10.59956 -66.99920 194 ft 11 kts 13°
2025-10-04 06:01 10.60080 -66.99919 196 ft 7 kts
2025-10-04 06:01 10.60144 -66.99801 198 ft 19 kts 85°
2025-10-04 06:02 10.60247 -66.99660 211 ft 11 kts 21°
2025-10-04 06:03 10.60275 -66.99280 200 ft 9 kts 89°
2025-10-04 06:03 10.60284 -66.99045 187 ft 18 kts 88°
2025-10-04 06:03 10.60289 -66.98932 186 ft 14 kts 78°
2025-10-04 06:04 10.60303 -66.98858 184 ft 0 kts 78°
2025-10-04 06:04 10.60306 -66.98847 183 ft 0 kts 69°
2025-10-04 06:05 10.60350 -66.98773 182 ft 14 kts 59°
2025-10-04 06:05 10.60361 -66.98754 181 ft 0 kts 60°
2025-10-04 06:07 10.60394 -66.98704 180 ft 13 kts 54°
2025-10-04 06:07 10.60469 -66.98479 170 ft 24 kts 88°
2025-10-04 06:08 10.60475 -66.98292 165 ft 10 kts 83°
2025-10-04 06:08 10.60484 -66.98199 163 ft 1 kts 92°
2025-10-04 06:09 10.60480 -66.98097 158 ft 2 kts 243°
2025-10-04 06:09 10.60479 -66.98103 158 ft 0 kts 261°
2025-10-04 06:11 10.60453 -66.98912 192 ft 114 kts 269°
2025-10-04 06:11 10.60415 -66.99892 219 ft 161 kts 274°
2025-10-04 06:11 10.60517 -67.02399 1470 ft 172 kts 276°